Location: Unspecified
(0.0000°N, 0.0000°E)
Time: 04:01:52
(UTC+00:00)

UME 2 Rocket - Visible Passes

Search period start: 14 May 2026 00:00
Search period end: 24 May 2026 00:00
Orbit: 974 x 1217 km, 69.4° (Epoch: 13 May)

Date Brightness Start Highest point End Pass type
(mag) Time Alt. Az. Time Alt. Az. Time Alt. Az.
14 May 9.7 04:29:18 10° SSE 04:34:25 19° ESE 04:39:24 10° ENE visible
15 May 7.6 05:29:13 10° SSW 05:36:50 87° ESE 05:44:07 10° NNE visible
15 May 9.9 19:00:18 10° W 19:02:08 11° WSW 19:03:59 10° SW visible
16 May 8.5 04:42:24 10° S 04:49:30 43° ESE 04:56:20 10° NE visible
17 May 9.5 03:56:44 10° SSE 04:02:07 21° ESE 04:07:20 10° ENE visible
18 May 7.4 04:56:56 10° SSW 05:04:31 88° WNW 05:11:47 10° NNE visible
18 May 10.1 18:29:06 10° WSW 18:29:48 10° WSW 18:30:30 10° WSW visible
19 May 8.3 04:10:01 10° S 04:17:12 46° ESE 04:24:04 10° NE visible
20 May 9.3 03:24:13 10° SSE 03:29:48 22° ESE 03:35:14 10° ENE visible
20 May 7.8 05:12:32 10° SW 05:19:29 41° WNW 05:26:09 10° N visible
21 May 7.3 04:26:18 18° SSW 04:32:12 83° WNW 04:39:25 10° NNE visible
22 May 8.1 03:41:15 29° SSE 03:44:53 50° ESE 03:51:49 10° NE visible
22 May 8.7 05:29:46 10° WSW 05:34:26 18° WNW 05:39:01 10° NNW visible
23 May 9.1 02:56:07 23° SE 02:57:30 24° ESE 03:03:06 10° ENE visible
23 May 7.9 04:43:24 24° WSW 04:47:09 38° WNW 04:53:42 10° N visible
